This demonstration page uses our WeatherBlox Daily Observations layout. Learn more.

Left ArrowRight Arrow

Hourly Observations for January 1, 2017

Temp ( °F °C ) Dew Point ( °F °C ) Humidity (%) Winds ( mph kmh ) Pressure ( in mb ) Visibility ( mi km ) Precip ( " mm )
12:15 am 00:15 Clear 24 -4.5 14 -9.8 67 67 S 6 9 29.97 1015 10 16 N/A
12:35 am 00:35 Clear 26 -3.4 16 -9 66 66 SSW 7 11 29.97 1015 10 16 N/A
12:55 am 00:55 Clear 26 -3.6 16 -8.8 68 68 SW 6 9 29.97 1015 10 16 N/A
1:15 am 01:15 Clear 26 -3.5 16 -8.9 67 67 SSW 7 11 29.97 1015 10 16 N/A
1:35 am 01:35 Clear 25 -4.1 15 -9.2 68 68 SSW 5 7 29.94 1014 10 16 N/A
1:55 am 01:55 Clear 24 -4.3 16 -9 70 70 SSW 6 9 29.94 1014 10 16 N/A
2:15 am 02:15 Clear 25 -4 16 -9.1 68 68 SSW 7 11 29.94 1014 10 16 N/A
2:35 am 02:35 Clear 25 -4.1 16 -9 69 69 SSW 3 6 29.94 1014 10 16 N/A
2:55 am 02:55 Clear 25 -3.8 16 -8.8 69 69 SSW 8 13 29.94 1014 10 16 N/A
3:15 am 03:15 Clear 25 -3.7 16 -9 67 67 SSW 8 13 29.97 1015 10 16 N/A
3:35 am 03:35 Clear 25 -4 16 -9 69 69 SSW 6 9 29.94 1014 10 16 N/A
3:55 am 03:55 Clear 26 -3.6 16 -9 67 67 SSW 8 13 29.94 1014 10 16 N/A
4:15 am 04:15 Clear 24 -4.4 16 -9.1 70 70 SSW 6 9 29.94 1014 10 16 N/A
4:35 am 04:35 Clear 25 -3.7 17 -8.6 69 69 SSW 5 7 29.94 1014 10 16 N/A
4:55 am 04:55 Clear 26 -3.1 17 -8.2 68 68 S 7 11 29.94 1014 10 16 N/A
5:15 am 05:15 Clear 29 -1.9 18 -7.8 64 64 SSW 10 17 29.91 1013 10 16 N/A
5:35 am 05:35 Mostly Cloudy 29 -1.5 18 -7.7 63 63 SSW 10 17 29.91 1013 10 16 N/A
5:55 am 05:55 Cloudy 30 -1.3 18 -7.7 62 62 SSW 14 22 29.91 1013 10 16 N/A
6:15 am 06:15 Cloudy 31 -0.8 18 -8 59 59 SSW 12 19 29.91 1013 10 16 N/A
6:35 am 06:35 Cloudy 31 -0.5 18 -7.8 58 58 S 12 19 29.91 1013 10 16 N/A
6:55 am 06:55 Cloudy 30 -0.9 18 -7.6 61 61 S 7 11 29.91 1013 10 16 N/A
7:15 am 07:15 Cloudy 30 -1 19 -7.3 63 63 S 8 13 29.91 1013 10 16 N/A
7:35 am 07:35 Cloudy 31 -0.6 19 -7 62 62 S 7 11 29.91 1013 10 16 N/A
7:55 am 07:55 Cloudy 31 -0.5 19 -7 62 62 S 6 9 29.91 1013 10 16 N/A
8:15 am 08:15 Cloudy 30 -1.1 20 -6.7 66 66 S 6 9 29.91 1013 10 16 N/A
8:35 am 08:35 Cloudy 30 -1 20 -6.7 66 66 S 9 15 29.91 1013 10 16 N/A
8:55 am 08:55 Cloudy 31 -0.8 20 -6.8 64 64 S 9 15 29.91 1013 10 16 N/A
9:15 am 09:15 Cloudy 32 -0.1 20 -6.9 61 61 SSE 10 17 29.91 1013 10 16 N/A
9:35 am 09:35 Cloudy 32 0.1 20 -6.8 60 60 SSE 13 20 29.91 1013 10 16 N/A
9:55 am 09:55 Cloudy 32 0.1 19 -7 59 59 S 10 17 29.91 1013 10 16 N/A
10:15 am 10:15 Cloudy 33 0.7 19 -7 57 57 S 12 19 29.91 1013 10 16 N/A
10:35 am 10:35 Cloudy 35 1.8 20 -6.9 53 53 S 13 20 29.91 1013 10 16 N/A
10:55 am 10:55 Cloudy 35 1.5 20 -6.8 54 54 S 15 24 29.91 1013 10 16 N/A
11:15 am 11:15 Cloudy 36 2.1 20 -6.8 52 52 SSE 16 26 29.88 1012 10 16 N/A
11:35 am 11:35 Cloudy 36 2.4 19 -7.2 50 50 SSE 17 28 29.88 1012 10 16 N/A
11:55 am 11:55 Cloudy 36 2.1 20 -6.9 52 52 SSE 17 28 29.85 1011 10 16 N/A
12:15 pm 12:15 Cloudy 37 2.5 19 -7 50 50 SSE 15 24 29.85 1011 10 16 N/A
12:35 pm 12:35 Cloudy 37 2.5 19 -7.4 48 48 SSE 15 24 29.85 1011 10 16 N/A
12:55 pm 12:55 Cloudy 36 2.4 19 -7.3 49 49 SSE 15 24 29.85 1011 10 16 N/A
1:15 pm 13:15 Cloudy 37 2.7 19 -7 49 49 SE 15 24 29.85 1011 10 16 N/A
1:35 pm 13:35 Cloudy 37 2.7 20 -6.8 50 50 SSE 13 20 29.85 1011 10 16 N/A
1:55 pm 13:55 Cloudy 37 2.6 20 -6.7 51 51 SE 14 22 29.83 1010 10 16 N/A
2:15 pm 14:15 Cloudy 37 2.9 20 -6.7 50 50 SE 15 24 29.80 1009 10 16 N/A
2:35 pm 14:35 Cloudy 38 3.4 20 -6.5 49 49 SE 14 22 29.77 1008 10 16 N/A
2:55 pm 14:55 Cloudy 38 3.5 20 -6.5 48 48 SE 14 22 29.77 1008 10 16 N/A
3:15 pm 15:15 Cloudy 38 3.6 21 -6.2 49 49 SE 15 24 29.77 1008 10 16 N/A
3:35 pm 15:35 Cloudy 38 3.5 21 -6 50 50 ESE 14 22 29.77 1008 10 16 N/A
3:55 pm 15:55 Cloudy 38 3.5 22 -5.8 51 51 ESE 13 20 29.77 1008 10 16 N/A
4:15 pm 16:15 Cloudy 37 3 22 -5.7 53 53 ESE 15 24 29.80 1009 10 16 N/A
4:35 pm 16:35 Cloudy 37 3 22 -5.5 54 54 ESE 12 19 29.80 1009 10 16 N/A
4:55 pm 16:55 Cloudy 38 3.2 22 -5.4 54 54 ESE 9 15 29.80 1009 10 16 N/A
5:15 pm 17:15 Mostly Cloudy 36 2.3 22 -5.7 56 56 ESE 10 17 29.83 1010 10 16 N/A
5:35 pm 17:35 Clear 33 0.5 22 -5.5 64 64 ESE 10 17 29.83 1010 10 16 N/A
5:55 pm 17:55 Clear 33 0.5 16 -9 49 49 SSW 6 9 29.94 1014 10 16 N/A
6:15 pm 18:15 Clear 30 -1 22 -5.5 72 72 E 7 11 29.85 1011 10 16 N/A
6:35 pm 18:35 Clear 28 -2.3 21 -6.1 75 75 ENE 5 7 29.85 1011 10 16 N/A
6:55 pm 18:55 Mostly Cloudy 28 -2.4 22 -5.7 78 78 ENE 8 13 29.85 1011 10 16 N/A
7:15 pm 19:15 Mostly Cloudy 28 -2 22 -5.5 77 77 ENE 10 17 29.85 1011 10 16 N/A
7:35 pm 19:35 Clear 28 -2.4 22 -5.6 79 79 ENE 9 15 29.85 1011 10 16 N/A
7:55 pm 19:55 Mostly Cloudy 28 -2 23 -5.1 80 80 ENE 10 17 29.85 1011 10 16 N/A
8:15 pm 20:15 Cloudy 30 -1 23 -4.8 76 76 ENE 9 15 29.88 1012 10 16 N/A
8:35 pm 20:35 Mostly Cloudy 30 -1.2 23 -5.1 75 75 ENE 10 17 29.88 1012 10 16 N/A
8:55 pm 20:55 Partly Cloudy 29 -1.5 23 -5.2 76 76 E 10 17 29.85 1011 10 16 N/A
9:15 pm 21:15 Clear 29 -1.8 22 -5.6 76 76 ENE 9 15 29.85 1011 10 16 N/A
9:35 pm 21:35 Clear 28 -2 23 -5.2 79 79 ENE 9 15 29.85 1011 10 16 N/A
9:55 pm 21:55 Mostly Cloudy 29 -1.7 22 -5.3 77 77 ENE 8 13 29.85 1011 10 16 N/A
10:15 pm 22:15 Cloudy 30 -1.2 23 -5 76 76 ENE 7 11 29.88 1012 10 16 N/A
10:35 pm 22:35 Cloudy 31 -0.4 24 -4.7 73 73 ENE 8 13 29.88 1012 10 16 N/A
10:55 pm 22:55 Cloudy 32 undefined 24 -4.5 72 72 E 8 13 29.88 1012 10 16 N/A
11:15 pm 23:15 Mostly Cloudy 32 -0.2 24 -4.6 73 73 E 10 17 29.85 1011 10 16 N/A
11:35 pm 23:35 Cloudy 32 0.1 25 -4.1 74 74 E 13 20 29.85 1011 10 16 N/A
11:55 pm 23:55 Cloudy 33 0.6 26 -3.6 74 74 ESE 12 19 29.83 1010 10 16 N/A

Powered by AerisWeather